Weather History for Palma de Mallorca, Spain

Change the Weather History Date:

Monday, November 12, 2012

  Actual Average Record
Temperature  
Mean Temperature 60 °F -  
Max Temperature 63 °F 62 °F 73 °F (1996)
Min Temperature 56 °F 44 °F 42 °F (2007)
Degree Days  
Heating Degree Days 6    
Growing Degree Days 10 (Base 50)    
Moisture  
Dew Point 53 °F    
Average Humidity 78    
Maximum Humidity 94    
Minimum Humidity 61    
Precipitation  
Precipitation 0.00 in 0.06 in - ()
Sea Level Pressure  
Sea Level Pressure 30.04 in    
Wind  
Wind Speed 16 mph ()    
Max Wind Speed 25 mph    
Max Gust Speed 34 mph    
Visibility 6.5 miles    
Events Rain , Thunderstorm    
Averages and records for this station are not official NWS values.
T = Trace of Precipitation, MM = Missing Value Source: Averaged Metar Reports

Daily Weather History Graph

Daily Weather History Graph

Search for Another Location

Airport:

Trip Planner

Search our weather history database for the weather conditions in past years. The results will help you decide how hot, cold, wet, or windy it might be!

Date:

Astronomy

Nov. 12, 2012 Rise Set
Actual Time 7:30 AM CET 5:35 PM CET
Civil Twilight 7:01 AM CET 6:04 PM CET
Nautical Twilight 6:29 AM CET 6:36 PM CET
Astronomical Twilight 5:57 AM CET 7:08 PM CET
Moon 5:37 AM CET (11/12) 4:29 PM CET (11/12)
Length of Visible Light 11h 03m
Length of Day
10h 05m
Waning Crescent, 3% of the Moon is Illuminated
Nov 12
Waning Crescent
Nov 13
New
Nov 20
First Quarter
Nov 28
Full
Dec 6
Last Quarter

Hourly Weather History & Observations

Time (CET) Temp. Dew Point Humidity Pressure Visibility Wind Dir Wind Speed Gust Speed Precip Events Conditions
12:00 AM 59.0 °F 55.4 °F 88% 29.92 in 6.2 mi ENE 15.0 mph - N/A   Scattered Clouds
12:30 AM 60.8 °F 55.4 °F 82% 29.95 in 6.2 mi ENE 10.4 mph - N/A Rain , Thunderstorm Rain Showers
1:00 AM 59 °F 53 °F 76% 29.95 in 12 mi NE 12.7 mph - -   Partly Cloudy
1:00 AM 60.8 °F 55.4 °F 82% 29.95 in 6.2 mi ENE 11.5 mph - N/A Rain , Thunderstorm Rain Showers
1:30 AM 59.0 °F 55.4 °F 88% 29.95 in 6.2 mi NE 9.2 mph - N/A   Scattered Clouds
2:00 AM 59.0 °F 57.2 °F 94% 29.95 in 6.2 mi ENE 11.5 mph - N/A Rain Rain
2:17 AM 59.0 °F 57.2 °F 94% 29.95 in 5.0 mi NE 20.7 mph 32.2 mph N/A Rain Heavy Rain Showers
2:30 AM 59.0 °F 57.2 °F 94% 29.95 in 5.0 mi NE 17.3 mph 28.8 mph N/A Rain Heavy Rain Showers
3:00 AM 59.0 °F 55.4 °F 88% 29.95 in 6.2 mi NE 18.4 mph - N/A Rain Rain Showers
3:30 AM 59.0 °F 55.4 °F 88% 29.98 in 6.2 mi NE 18.4 mph - N/A Rain Rain Showers
4:00 AM 59.0 °F 55.4 °F 88% 29.98 in 6.2 mi NE 19.6 mph - N/A   Scattered Clouds
4:30 AM 59.0 °F 55.4 °F 88% 29.98 in 6.2 mi NE 19.6 mph - N/A Rain Rain Showers
5:00 AM 59.0 °F 55.4 °F 88% 29.98 in 6.2 mi NE 18.4 mph - N/A   Scattered Clouds
5:30 AM 59.0 °F 55.4 °F 88% 29.98 in 6.2 mi NE 18.4 mph - N/A   Partly Cloudy
6:00 AM 60.8 °F 55.4 °F 82% 29.98 in 6.2 mi NE 19.6 mph - N/A   Partly Cloudy
6:30 AM 59.0 °F 53.6 °F 82% 29.98 in 6.2 mi NE 17.3 mph - N/A   Partly Cloudy
7:00 AM 58 °F 52 °F 73% 30.01 in 12 mi NE 15.0 mph - -   Partly Cloudy
7:00 AM 59.0 °F 53.6 °F 82% 30.01 in 6.2 mi NE 20.7 mph - N/A   Scattered Clouds
7:30 AM 60.8 °F 53.6 °F 77% 30.01 in 6.2 mi NE 18.4 mph - N/A   Scattered Clouds
8:00 AM 60.8 °F 53.6 °F 77% 30.04 in 6.2 mi NE 17.3 mph - N/A   Scattered Clouds
8:30 AM 60.8 °F 55.4 °F 82% 30.04 in 6.2 mi NE 15.0 mph - N/A   Scattered Clouds
9:00 AM 60.8 °F 55.4 °F 82% 30.06 in 6.2 mi NE 18.4 mph 31.1 mph N/A   Partly Cloudy
9:30 AM 62.6 °F 55.4 °F 77% 30.06 in 6.2 mi NE 18.4 mph - N/A   Partly Cloudy
10:00 AM 62.6 °F 55.4 °F 77% 30.06 in 6.2 mi NE 25.3 mph - N/A   Partly Cloudy
10:30 AM 62.6 °F 55.4 °F 77% 30.09 in 6.2 mi NE 25.3 mph - N/A   Partly Cloudy
11:00 AM 62.6 °F 55.4 °F 77% 30.09 in 6.2 mi NE 23.0 mph - N/A   Partly Cloudy
12:00 PM 62.6 °F 57.2 °F 82% 30.09 in 6.2 mi N/A N/A - N/A   Partly Cloudy
12:30 PM 64.4 °F 53.6 °F 68% 30.09 in - North - - N/A   Partly Cloudy
1:30 PM 62.6 °F 53.6 °F 72% 30.09 in 6.2 mi NE 20.7 mph 32.2 mph N/A   Partly Cloudy
2:00 PM 62.6 °F 53.6 °F 72% - 6.2 mi NE 24.2 mph - N/A   Scattered Clouds
2:30 PM 62.6 °F 53.6 °F 72% - 6.2 mi NE 21.9 mph - N/A   Scattered Clouds
3:00 PM 62.6 °F 51.8 °F 68% 30.09 in 6.2 mi NE 18.4 mph - N/A   Scattered Clouds
3:30 PM 62.6 °F 51.8 °F 68% 30.06 in 6.2 mi NE 21.9 mph - N/A   Partly Cloudy
4:00 PM 62.6 °F 51.8 °F 68% 30.09 in 6.2 mi NE 19.6 mph - N/A   Partly Cloudy
4:30 PM 60.8 °F 51.8 °F 72% 30.06 in 6.2 mi NE 21.9 mph - N/A   Partly Cloudy
5:00 PM 60.8 °F 50.0 °F 68% 30.06 in 6.2 mi NE 21.9 mph - N/A   Partly Cloudy
5:30 PM 60.8 °F 50.0 °F 68% 30.06 in 6.2 mi NE 20.7 mph - N/A   Partly Cloudy
6:00 PM 60.8 °F 51.8 °F 72% 30.09 in 6.2 mi NE 16.1 mph - N/A   Partly Cloudy
6:30 PM 59.0 °F 51.8 °F 77% 30.09 in 6.2 mi NE 19.6 mph - N/A   Partly Cloudy
7:00 PM 58 °F 48 °F 61% 30.11 in 12 mi NE 18.4 mph - -   Scattered Clouds
7:00 PM 59.0 °F 51.8 °F 77% 30.09 in 6.2 mi NE 17.3 mph - N/A   Partly Cloudy
7:30 PM 59.0 °F 50.0 °F 72% 30.09 in 6.2 mi NE 20.7 mph - N/A   Partly Cloudy
8:00 PM 59.0 °F 50.0 °F 72% 30.12 in 6.2 mi NE 16.1 mph - N/A   Partly Cloudy
8:30 PM 60.8 °F 50.0 °F 68% 30.12 in 6.2 mi NE 17.3 mph - N/A   Partly Cloudy
9:00 PM 59.0 °F 50.0 °F 72% 30.12 in 6.2 mi NE 13.8 mph - N/A   Partly Cloudy
9:30 PM 59.0 °F 50.0 °F 72% 30.12 in 6.2 mi NE 16.1 mph - N/A   Partly Cloudy
10:00 PM 59.0 °F 50.0 °F 72% 30.09 in 6.2 mi NE 19.6 mph 34.5 mph N/A   Partly Cloudy
10:30 PM 59.0 °F 50.0 °F 72% 30.09 in 6.2 mi NE 21.9 mph - N/A   Partly Cloudy
11:00 PM 59.0 °F 50.0 °F 72% 30.09 in 6.2 mi NE 18.4 mph - N/A   Partly Cloudy
11:30 PM 59.0 °F 50.0 °F 72% 30.09 in 6.2 mi NNE 18.4 mph 31.1 mph N/A   Partly Cloudy